QPF
0.01 0.00 0.00 0.00 0.00 0.00 0.00 0.01 0.01 0.01 0.02 0.01 0.01 0.00 0.01 0.01 0.02 0.03 0.03 0.02 0.02 0.02 0.01 0.01 0.01 0.01 0.01 0.01 0.01 0.01 0.01 0.02 0.02 0.03 0.02 0.03 0.04 0.05 0.05 0.05 0.04 0.02 0.02 0.02
0.01 0.00 0.00 0.00 0.00 0.00 0.00 0.01 0.02 0.01 0.02 0.01 0.00 0.00 0.00 0.01 0.03 0.04 0.03 0.03 0.03 0.03 0.02 0.01 0.01 0.01 0.01 0.01 0.01 0.01 0.01 0.01 0.02 0.02 0.02 0.03 0.03 0.03 0.04 0.04 0.04 0.04 0.02 0.01
0.01 0.00 0.01 0.01 0.01 0.01 0.01 0.01 0.01 0.02 0.03 0.01 0.00 0.01 0.01 0.02 0.03 0.05 0.04 0.03 0.03 0.02 0.02 0.01 0.01 0.01 0.01 0.01 0.01 0.01 0.01 0.01 0.02 0.02 0.02 0.02 0.03 0.03 0.03 0.03 0.03 0.03 0.02 0.01
0.02 0.01 0.02 0.02 0.00 0.00 0.01 0.01 0.01 0.01 0.01 0.00 0.00 0.01 0.02 0.03 0.04 0.04 0.04 0.04 0.03 0.02 0.01 0.01 0.01 0.01 0.01 0.02 0.02 0.02 0.01 0.02 0.02 0.02 0.02 0.03 0.02 0.02 0.03 0.02 0.02 0.02 0.01 0.01
0.02 0.02 0.01 0.01 0.01 0.01 0.03 0.04 0.01 0.01 0.01 0.00 0.00 0.00 0.02 0.03 0.03 0.03 0.03 0.03 0.03 0.03 0.02 0.01 0.01 0.01 0.01 0.02 0.02 0.02 0.02 0.03 0.03 0.02 0.02 0.03 0.02 0.02 0.02 0.02 0.02 0.02 0.02 0.01
0.02 0.02 0.02 0.02 0.00 0.00 0.03 0.06 0.02 0.01 0.02 0.01 0.01 0.02 0.01 0.01 0.01 0.02 0.02 0.02 0.03 0.03 0.02 0.02 0.01 0.02 0.02 0.02 0.02 0.02 0.02 0.02 0.03 0.03 0.03 0.02 0.02 0.02 0.02 0.02 0.02 0.02 0.02 0.01
0.03 0.02 0.02 0.01 0.00 0.01 0.05 0.05 0.02 0.02 0.01 0.01 0.02 0.01 0.00 0.00 0.01 0.02 0.02 0.02 0.02 0.02 0.03 0.03 0.02 0.02 0.02 0.03 0.03 0.03 0.03 0.03 0.03 0.03 0.02 0.02 0.02 0.02 0.02 0.02 0.02 0.02 0.02 0.01
0.04 0.03 0.03 0.02 0.02 0.04 0.04 0.02 0.01 0.01 0.01 0.01 0.00 0.00 0.00 0.00 0.01 0.02 0.01 0.02 0.02 0.03 0.04 0.04 0.03 0.03 0.04 0.04 0.04 0.04 0.03 0.03 0.04 0.03 0.01 0.01 0.02 0.02 0.02 0.02 0.02 0.02 0.02 0.01
0.03 0.04 0.04 0.03 0.02 0.02 0.01 0.01 0.01 0.01 0.00 0.00 0.00 0.00 0.00 0.01 0.02 0.02 0.02 0.02 0.03 0.04 0.04 0.04 0.04 0.05 0.05 0.04 0.04 0.04 0.04 0.04 0.03 0.03 0.02 0.02 0.03 0.03 0.02 0.02 0.02 0.02 0.02 0.01
0.03 0.02 0.01 0.02 0.01 0.01 0.01 0.01 0.01 0.01 0.00 0.00 0.00 0.00 0.00 0.01 0.02 0.02 0.02 0.02 0.03 0.04 0.04 0.04 0.05 0.06 0.05 0.04 0.03 0.03 0.03 0.03 0.03 0.03 0.02 0.02 0.02 0.02 0.02 0.02 0.01 0.01 0.00 0.00
0.03 0.02 0.02 0.02 0.01 0.02 0.01 0.01 0.00 0.00 0.00 0.00 0.00 0.01 0.01 0.01 0.01 0.01 0.02 0.02 0.03 0.04 0.03 0.03 0.04 0.05 0.03 0.03 0.03 0.03 0.02 0.02 0.02 0.02 0.01 0.01 0.01 0.01 0.02 0.01 0.01 0.01 0.01 0.00
0.03 0.03 0.04 0.02 0.02 0.02 0.01 0.00 0.00 0.00 0.00 0.00 0.00 0.01 0.01 0.01 0.01 0.02 0.02 0.02 0.03 0.04 0.03 0.03 0.04 0.04 0.03 0.02 0.03 0.02 0.02 0.02 0.01 0.01 0.01 0.01 0.00 0.00 0.00 0.00 0.00 0.00 0.00 0.00
0.03 0.02 0.02 0.01 0.01 0.01 0.01 0.00 0.00 0.00 0.00 0.00 0.00 0.00 0.01 0.01 0.02 0.02 0.03 0.03 0.03 0.03 0.03 0.03 0.03 0.03 0.03 0.03 0.03 0.03 0.02 0.01 0.00 0.00 0.00 0.00 0.00 0.01 0.00 0.00 0.00 0.00 0.00 0.00
0.01 0.02 0.02 0.02 0.01 0.01 0.00 0.00 0.00 0.00 0.00 0.00 0.00 0.00 0.00 0.01 0.02 0.02 0.03 0.03 0.02 0.02 0.01 0.02 0.02 0.02 0.02 0.02 0.02 0.02 0.01 0.00 0.00 0.00 0.00 0.00 0.00 0.00 0.00 0.00 0.00 0.00 0.00 0.00
0.01 0.02 0.03 0.03 0.02 0.01 0.00 0.00 0.00 0.00 0.00 0.00 0.00 0.01 0.01 0.01 0.01 0.02 0.03 0.02 0.01 0.01 0.01 0.01 0.02 0.02 0.02 0.01 0.01 0.01 0.00 0.00 0.00 0.00 0.00 0.00 0.00 0.00 0.00 0.00 0.00 0.00 0.00 0.00
0.01 0.01 0.00 0.00 0.00 0.01 0.00 0.00 0.00 0.00 0.00 0.00 0.01 0.01 0.01 0.01 0.01 0.02 0.01 0.01 0.01 0.01 0.02 0.01 0.02 0.02 0.02 0.01 0.01 0.00 0.00 0.00 0.00 0.00 0.00 0.00 0.00 0.00 0.00 0.00 0.00 0.00 0.00 0.00
0.00 0.00 0.00 0.00 0.00 0.00 0.00 0.00 0.00 0.00 0.00 0.01 0.02 0.02 0.01 0.01 0.01 0.01 0.01 0.01 0.02 0.02 0.01 0.02 0.02 0.01 0.01 0.01 0.01 0.00 0.00 0.00 0.00 0.00 0.00 0.00 0.00 0.00 0.00 0.00 0.00 0.00 0.00 0.00
0.00 0.00 0.00 0.00 0.00 0.00 0.01 0.01 0.00 0.00 0.01 0.01 0.02 0.01 0.01 0.01 0.01 0.01 0.01 0.01 0.01 0.02 0.02 0.02 0.01 0.01 0.00 0.00 0.00 0.00 0.00 0.00 0.00 0.00 0.00 0.00 0.00 0.00 0.00 0.00 0.00 0.00 0.00 0.00
0.00 0.00 0.00 0.00 0.00 0.01 0.00 0.00 0.00 0.00 0.01 0.01 0.01 0.01 0.01 0.00 0.00 0.01 0.01 0.01 0.01 0.02 0.01 0.01 0.00 0.01 0.01 0.00 0.00 0.00 0.00 0.00 0.00 0.00 0.00 0.00 0.00 0.00 0.00 0.00 0.00 0.00 0.00 0.00
0.00 0.00 0.00 0.00 0.00 0.00 0.00 0.00 0.00 0.00 0.00 0.00 0.00 0.00 0.00 0.00 0.00 0.00 0.01 0.01 0.01 0.01 0.00 0.00 0.00 0.00 0.00 0.00 0.00 0.00 0.00 0.00 0.00 0.00 0.00 0.00 0.00 0.00 0.00 0.00 0.00 0.00 0.00 0.00
0.00 0.00 0.00 0.00 0.00 0.00 0.00 0.00 0.00 0.00 0.00 0.00 0.00 0.00 0.00 0.00 0.00 0.00 0.00 0.01 0.00 0.00 0.00 0.00 0.00 0.00 0.00 0.00 0.00 0.00 0.00 0.00 0.00 0.00 0.00 0.00 0.00 0.00 0.00 0.00 0.00 0.00 0.00 0.00
0.00 0.00 0.00 0.00 0.00 0.00 0.00 0.00 0.00 0.00 0.00 0.00 0.00 0.00 0.00 0.00 0.00 0.00 0.00 0.00 0.00 0.00 0.00 0.00 0.00 0.00 0.00 0.00 0.00 0.00 0.00 0.00 0.00 0.00 0.00 0.00 0.00 0.00 0.00 0.00 0.00 0.00 0.00 0.00
0.00 0.00 0.00 0.00 0.00 0.00 0.00 0.00 0.00 0.00 0.00 0.00 0.00 0.00 0.00 0.00 0.00 0.00 0.00 0.00 0.00 0.00 0.00 0.00 0.00 0.00 0.00 0.00 0.00 0.00 0.00 0.00 0.00 0.00 0.00 0.00 0.00 0.00 0.00 0.00 0.00 0.00 0.00 0.00
0.00 0.00 0.00 0.00 0.00 0.00 0.00 0.00 0.00 0.00 0.00 0.00 0.00 0.00 0.00 0.00 0.00 0.00 0.00 0.00 0.00 0.00 0.00 0.00 0.00 0.00 0.00 0.00 0.00 0.00 0.00 0.00 0.00 0.00 0.00 0.00 0.00 0.00 0.00 0.00 0.00 0.00 0.00 0.00
0.00 0.00 0.00 0.00 0.00 0.00 0.00 0.00 0.00 0.00 0.00 0.00 0.00 0.00 0.00 0.00 0.00 0.00 0.00 0.00 0.00 0.00 0.00 0.00 0.00 0.00 0.00 0.00 0.00 0.00 0.00 0.00 0.00 0.00 0.00 0.00 0.00 0.00 0.00 0.00 0.00 0.00 0.00 0.00
0.00 0.00 0.00 0.00 0.00 0.00 0.00 0.00 0.00 0.00 0.00 0.00 0.00 0.00 0.00 0.00 0.00 0.00 0.00 0.00 0.00 0.00 0.00 0.00 0.00 0.00 0.00 0.00 0.00 0.00 0.00 0.00 0.00 0.00 0.00 0.00 0.00 0.00 0.00 0.00 0.00 0.00 0.00 0.00
0.00 0.00 0.00 0.00 0.00 0.00 0.00 0.00 0.00 0.00 0.00 0.00 0.00 0.00 0.00 0.00 0.00 0.00 0.00 0.00 0.00 0.00 0.00 0.00 0.00 0.00 0.00 0.00 0.00 0.00 0.00 0.00 0.00 0.00 0.00 0.00 0.00 0.00 0.00 0.00 0.00 0.00 0.00 0.00
MSLP
1013.75 1013.32 1012.95 1012.65 1012.44 1012.31 1012.24 1012.23 1012.24 1012.29 1012.40 1012.58 1012.86 1013.27 1013.81 1014.49 1015.28 1016.13 1016.98 1017.77 1018.44 1018.95 1019.29 1019.46 1019.47 1019.38 1019.23 1019.07 1018.94 1018.87 1018.85 1018.89 1018.97 1019.06 1019.13 1019.18 1019.18 1019.14 1019.07 1018.97 1018.86 1018.75 1018.65 1018.59
1013.98 1013.52 1013.08 1012.70 1012.40 1012.19 1012.07 1012.04 1012.09 1012.23 1012.46 1012.78 1013.20 1013.74 1014.37 1015.09 1015.87 1016.66 1017.42 1018.11 1018.68 1019.12 1019.41 1019.58 1019.63 1019.61 1019.56 1019.50 1019.46 1019.47 1019.51 1019.59 1019.68 1019.77 1019.85 1019.89 1019.91 1019.90 1019.86 1019.81 1019.75 1019.69 1019.65 1019.62
1014.16 1013.69 1013.23 1012.80 1012.45 1012.19 1012.04 1012.02 1012.12 1012.34 1012.68 1013.14 1013.69 1014.33 1015.03 1015.77 1016.52 1017.25 1017.91 1018.49 1018.96 1019.33 1019.58 1019.74 1019.84 1019.89 1019.93 1019.97 1020.04 1020.12 1020.22 1020.33 1020.43 1020.52 1020.59 1020.64 1020.65 1020.65 1020.64 1020.62 1020.60 1020.59 1020.57 1020.56
1014.28 1013.84 1013.38 1012.94 1012.57 1012.29 1012.14 1012.14 1012.30 1012.60 1013.05 1013.61 1014.28 1015.00 1015.76 1016.52 1017.24 1017.89 1018.47 1018.95 1019.33 1019.63 1019.85 1020.01 1020.14 1020.26 1020.38 1020.51 1020.65 1020.79 1020.94 1021.07 1021.17 1021.26 1021.31 1021.34 1021.36 1021.37 1021.37 1021.38 1021.39 1021.40 1021.40 1021.40
1014.37 1013.97 1013.53 1013.10 1012.73 1012.46 1012.32 1012.36 1012.56 1012.95 1013.48 1014.15 1014.90 1015.70 1016.51 1017.28 1017.98 1018.58 1019.09 1019.49 1019.80 1020.04 1020.23 1020.39 1020.55 1020.71 1020.88 1021.07 1021.26 1021.44 1021.60 1021.73 1021.83 1021.90 1021.94 1021.96 1021.97 1021.98 1022.00 1022.04 1022.07 1022.10 1022.13 1022.14
1014.44 1014.07 1013.66 1013.25 1012.89 1012.64 1012.53 1012.60 1012.87 1013.32 1013.93 1014.68 1015.51 1016.38 1017.23 1018.01 1018.70 1019.28 1019.75 1020.10 1020.36 1020.55 1020.72 1020.87 1021.03 1021.21 1021.40 1021.61 1021.81 1022.00 1022.15 1022.27 1022.35 1022.39 1022.41 1022.42 1022.44 1022.47 1022.51 1022.57 1022.64 1022.71 1022.76 1022.78
1014.49 1014.14 1013.75 1013.36 1013.03 1012.81 1012.73 1012.85 1013.16 1013.67 1014.36 1015.17 1016.07 1016.99 1017.88 1018.68 1019.38 1019.95 1020.38 1020.71 1020.93 1021.10 1021.24 1021.38 1021.53 1021.70 1021.89 1022.08 1022.27 1022.42 1022.55 1022.63 1022.68 1022.69 1022.70 1022.72 1022.75 1022.80 1022.89 1023.00 1023.11 1023.22 1023.31 1023.37
1014.52 1014.18 1013.81 1013.45 1013.15 1012.96 1012.93 1013.09 1013.45 1014.01 1014.75 1015.61 1016.55 1017.51 1018.43 1019.25 1019.96 1020.52 1020.95 1021.26 1021.47 1021.62 1021.74 1021.86 1021.98 1022.13 1022.28 1022.44 1022.58 1022.69 1022.77 1022.81 1022.82 1022.83 1022.83 1022.86 1022.92 1023.02 1023.16 1023.33 1023.51 1023.68 1023.83 1023.93
1014.53 1014.20 1013.84 1013.52 1013.26 1013.12 1013.13 1013.34 1013.75 1014.35 1015.12 1016.01 1016.97 1017.94 1018.87 1019.70 1020.40 1020.97 1021.39 1021.69 1021.89 1022.03 1022.13 1022.23 1022.33 1022.44 1022.55 1022.65 1022.74 1022.80 1022.84 1022.84 1022.83 1022.83 1022.84 1022.90 1023.00 1023.16 1023.37 1023.61 1023.87 1024.11 1024.32 1024.47
1014.52 1014.19 1013.87 1013.58 1013.38 1013.30 1013.37 1013.63 1014.08 1014.70 1015.49 1016.39 1017.34 1018.30 1019.21 1020.02 1020.71 1021.25 1021.66 1021.95 1022.15 1022.28 1022.37 1022.45 1022.52 1022.60 1022.68 1022.74 1022.79 1022.81 1022.81 1022.79 1022.77 1022.77 1022.80 1022.90 1023.06 1023.28 1023.56 1023.88 1024.20 1024.52 1024.79 1025.00
1014.45 1014.15 1013.87 1013.65 1013.52 1013.52 1013.66 1013.97 1014.46 1015.10 1015.88 1016.76 1017.68 1018.60 1019.46 1020.22 1020.87 1021.38 1021.76 1022.04 1022.22 1022.35 1022.43 1022.51 1022.57 1022.64 1022.69 1022.73 1022.76 1022.76 1022.74 1022.72 1022.71 1022.73 1022.80 1022.93 1023.14 1023.42 1023.77 1024.15 1024.54 1024.91 1025.23 1025.49
1014.31 1014.05 1013.85 1013.71 1013.67 1013.76 1013.98 1014.35 1014.87 1015.53 1016.30 1017.13 1018.00 1018.84 1019.62 1020.32 1020.89 1021.35 1021.70 1021.95 1022.12 1022.24 1022.34 1022.42 1022.49 1022.57 1022.63 1022.68 1022.71 1022.72 1022.72 1022.71 1022.72 1022.76 1022.87 1023.04 1023.29 1023.61 1024.00 1024.42 1024.85 1025.26 1025.61 1025.90
1014.07 1013.88 1013.76 1013.73 1013.80 1013.98 1014.29 1014.72 1015.28 1015.95 1016.69 1017.48 1018.27 1019.03 1019.72 1020.32 1020.82 1021.21 1021.51 1021.73 1021.89 1022.02 1022.13 1022.24 1022.35 1022.45 1022.55 1022.63 1022.70 1022.74 1022.76 1022.79 1022.83 1022.90 1023.03 1023.22 1023.50 1023.84 1024.24 1024.68 1025.12 1025.54 1025.90 1026.19
1013.73 1013.62 1013.60 1013.67 1013.84 1014.12 1014.52 1015.02 1015.62 1016.29 1017.01 1017.74 1018.46 1019.13 1019.73 1020.24 1020.66 1020.99 1021.24 1021.44 1021.59 1021.73 1021.87 1022.02 1022.17 1022.33 1022.48 1022.62 1022.73 1022.82 1022.89 1022.95 1023.02 1023.12 1023.26 1023.46 1023.74 1024.08 1024.47 1024.89 1025.32 1025.72 1026.07 1026.35
1013.30 1013.26 1013.32 1013.48 1013.76 1014.13 1014.61 1015.17 1015.80 1016.48 1017.18 1017.88 1018.54 1019.14 1019.66 1020.09 1020.44 1020.72 1020.94 1021.12 1021.27 1021.44 1021.61 1021.80 1022.01 1022.22 1022.44 1022.63 1022.80 1022.95 1023.06 1023.16 1023.25 1023.36 1023.51 1023.70 1023.96 1024.27 1024.63 1025.02 1025.41 1025.78 1026.10 1026.35
1012.78 1012.80 1012.93 1013.17 1013.52 1013.97 1014.51 1015.12 1015.79 1016.48 1017.18 1017.85 1018.47 1019.02 1019.49 1019.88 1020.18 1020.43 1020.63 1020.80 1020.97 1021.16 1021.37 1021.61 1021.87 1022.14 1022.41 1022.66 1022.89 1023.07 1023.23 1023.35 1023.46 1023.57 1023.71 1023.88 1024.11 1024.38 1024.69 1025.04 1025.38 1025.72 1026.00 1026.22
1012.23 1012.28 1012.45 1012.74 1013.14 1013.63 1014.22 1014.87 1015.56 1016.27 1016.97 1017.63 1018.24 1018.77 1019.23 1019.59 1019.89 1020.13 1020.33 1020.52 1020.71 1020.92 1021.17 1021.44 1021.75 1022.06 1022.38 1022.67 1022.93 1023.15 1023.33 1023.47 1023.59 1023.69 1023.81 1023.96 1024.14 1024.37 1024.64 1024.93 1025.24 1025.53 1025.79 1025.99
1011.70 1011.76 1011.94 1012.24 1012.65 1013.16 1013.76 1014.43 1015.14 1015.86 1016.58 1017.25 1017.87 1018.42 1018.88 1019.26 1019.57 1019.83 1020.05 1020.26 1020.48 1020.72 1020.99 1021.30 1021.63 1021.97 1022.31 1022.62 1022.91 1023.14 1023.33 1023.47 1023.59 1023.69 1023.79 1023.91 1024.06 1024.25 1024.48 1024.73 1025.00 1025.26 1025.49 1025.68
1011.24 1011.28 1011.45 1011.73 1012.12 1012.62 1013.21 1013.88 1014.59 1015.32 1016.05 1016.75 1017.39 1017.97 1018.46 1018.88 1019.23 1019.53 1019.79 1020.03 1020.27 1020.54 1020.83 1021.15 1021.49 1021.84 1022.18 1022.50 1022.78 1023.02 1023.21 1023.35 1023.46 1023.55 1023.63 1023.73 1023.86 1024.02 1024.22 1024.45 1024.69 1024.94 1025.16 1025.34
1010.90 1010.92 1011.04 1011.28 1011.64 1012.10 1012.66 1013.30 1013.99 1014.72 1015.46 1016.18 1016.85 1017.47 1018.01 1018.48 1018.87 1019.22 1019.52 1019.80 1020.07 1020.35 1020.65 1020.97 1021.31 1021.65 1021.98 1022.29 1022.57 1022.80 1022.98 1023.12 1023.22 1023.31 1023.39 1023.48 1023.59 1023.74 1023.92 1024.13 1024.36 1024.59 1024.81 1025.00
1010.71 1010.70 1010.78 1010.96 1011.26 1011.66 1012.17 1012.76 1013.42 1014.13 1014.87 1015.60 1016.29 1016.94 1017.53 1018.04 1018.49 1018.88 1019.23 1019.54 1019.84 1020.14 1020.45 1020.76 1021.09 1021.42 1021.74 1022.03 1022.29 1022.51 1022.68 1022.82 1022.92 1023.01 1023.09 1023.18 1023.29 1023.44 1023.61 1023.81 1024.03 1024.25 1024.46 1024.64
1010.67 1010.62 1010.65 1010.78 1011.00 1011.34 1011.77 1012.31 1012.92 1013.59 1014.30 1015.03 1015.73 1016.41 1017.03 1017.59 1018.08 1018.52 1018.90 1019.25 1019.57 1019.89 1020.20 1020.52 1020.84 1021.15 1021.45 1021.73 1021.98 1022.19 1022.36 1022.50 1022.61 1022.70 1022.78 1022.88 1022.99 1023.13 1023.30 1023.49 1023.70 1023.91 1024.11 1024.29
1010.75 1010.67 1010.65 1010.71 1010.86 1011.12 1011.48 1011.94 1012.49 1013.11 1013.78 1014.48 1015.19 1015.87 1016.51 1017.10 1017.63 1018.10 1018.52 1018.91 1019.26 1019.59 1019.92 1020.24 1020.55 1020.86 1021.15 1021.42 1021.66 1021.87 1022.04 1022.18 1022.29 1022.39 1022.48 1022.57 1022.69 1022.83 1022.99 1023.17 1023.37 1023.56 1023.75 1023.90
1010.89 1010.78 1010.72 1010.72 1010.80 1010.97 1011.25 1011.63 1012.11 1012.67 1013.29 1013.95 1014.64 1015.31 1015.96 1016.57 1017.12 1017.63 1018.08 1018.50 1018.88 1019.24 1019.58 1019.91 1020.24 1020.54 1020.84 1021.10 1021.34 1021.55 1021.72 1021.86 1021.98 1022.08 1022.17 1022.27 1022.38 1022.51 1022.66 1022.83 1023.00 1023.18 1023.34 1023.48
1011.05 1010.91 1010.80 1010.74 1010.75 1010.85 1011.04 1011.34 1011.74 1012.23 1012.80 1013.42 1014.07 1014.73 1015.37 1015.99 1016.56 1017.09 1017.58 1018.03 1018.44 1018.83 1019.19 1019.54 1019.88 1020.20 1020.49 1020.77 1021.00 1021.21 1021.38 1021.52 1021.64 1021.74 1021.83 1021.92 1022.02 1022.14 1022.27 1022.42 1022.58 1022.73 1022.88 1023.00
1011.15 1010.98 1010.83 1010.71 1010.66 1010.68 1010.81 1011.04 1011.36 1011.79 1012.30 1012.87 1013.48 1014.12 1014.75 1015.36 1015.95 1016.50 1017.01 1017.49 1017.93 1018.35 1018.74 1019.11 1019.47 1019.80 1020.10 1020.38 1020.62 1020.82 1020.99 1021.13 1021.24 1021.33 1021.41 1021.49 1021.58 1021.68 1021.80 1021.94 1022.08 1022.21 1022.35 1022.46
1011.16 1010.96 1010.76 1010.59 1010.48 1010.46 1010.52 1010.68 1010.95 1011.32 1011.78 1012.30 1012.88 1013.48 1014.09 1014.70 1015.29 1015.85 1016.38 1016.88 1017.35 1017.79 1018.21 1018.60 1018.97 1019.31 1019.63 1019.90 1020.14 1020.35 1020.51 1020.64 1020.74 1020.82 1020.89 1020.96 1021.04 1021.13 1021.24 1021.36 1021.49 1021.63 1021.76 1021.87
Thickness
5676 5681 5681 5681 5683 5685 5682 5681 5676 5680 5679 5677 5669 5659 5648 5635 5621 5611 5603 5596 5590 5585 5580 5576 5573 5570 5569 5567 5566 5565 5565 5564 5563 5562 5562 5562 5562 5562 5563 5564 5565 5566 5567 5567
5667 5676 5678 5676 5680 5682 5681 5681 5678 5677 5672 5671 5664 5653 5640 5627 5615 5606 5597 5589 5582 5577 5572 5568 5565 5562 5560 5558 5556 5556 5556 5555 5554 5553 5553 5553 5552 5552 5553 5554 5554 5555 5556 5557
5659 5671 5671 5665 5675 5677 5677 5678 5674 5669 5666 5661 5648 5640 5631 5621 5610 5601 5592 5583 5576 5570 5565 5560 5557 5554 5552 5550 5548 5547 5546 5546 5545 5545 5544 5544 5544 5544 5544 5545 5545 5545 5546 5546
5655 5658 5647 5666 5681 5678 5673 5672 5671 5665 5659 5651 5641 5632 5624 5615 5605 5595 5586 5577 5569 5563 5557 5552 5548 5546 5544 5542 5540 5539 5538 5538 5537 5537 5536 5536 5535 5535 5535 5536 5536 5537 5537 5537
5649 5652 5656 5666 5670 5670 5664 5660 5662 5656 5647 5637 5629 5619 5609 5604 5598 5589 5580 5570 5562 5556 5550 5545 5542 5539 5537 5534 5533 5532 5531 5530 5529 5529 5529 5528 5527 5527 5527 5527 5528 5528 5529 5529
5645 5642 5643 5653 5666 5672 5665 5651 5654 5650 5640 5631 5626 5620 5605 5596 5588 5579 5569 5560 5553 5548 5543 5539 5535 5533 5531 5528 5526 5525 5524 5523 5522 5523 5522 5521 5520 5520 5520 5520 5521 5522 5521 5520
5641 5642 5650 5655 5664 5666 5649 5643 5650 5646 5639 5631 5626 5622 5604 5590 5579 5569 5560 5552 5547 5541 5537 5533 5530 5528 5525 5523 5520 5519 5518 5517 5517 5517 5516 5515 5514 5514 5514 5515 5514 5514 5514 5513
5642 5638 5639 5651 5655 5647 5642 5647 5646 5641 5635 5625 5616 5606 5594 5582 5571 5562 5554 5546 5541 5537 5532 5528 5525 5523 5520 5517 5516 5514 5513 5513 5512 5512 5513 5511 5510 5509 5510 5510 5510 5510 5509 5509
5640 5640 5643 5646 5644 5645 5645 5643 5641 5636 5628 5618 5606 5595 5584 5574 5564 5556 5549 5542 5537 5532 5528 5523 5521 5519 5516 5514 5512 5511 5510 5509 5509 5508 5508 5508 5507 5507 5507 5508 5510 5510 5509 5509
5637 5642 5644 5644 5644 5643 5642 5639 5636 5630 5621 5612 5600 5589 5578 5568 5559 5551 5544 5538 5534 5530 5526 5521 5518 5515 5513 5511 5510 5509 5508 5507 5506 5506 5506 5505 5506 5507 5507 5508 5508 5508 5508 5507
5633 5638 5640 5639 5637 5636 5635 5633 5628 5621 5615 5606 5596 5585 5575 5565 5557 5549 5542 5536 5532 5528 5525 5521 5517 5514 5511 5509 5508 5507 5506 5506 5506 5506 5506 5504 5503 5500 5502 5500 5500 5502 5504 5504
5630 5634 5632 5630 5631 5632 5628 5625 5621 5615 5607 5600 5591 5581 5573 5563 5555 5548 5541 5536 5531 5527 5524 5520 5516 5513 5511 5510 5509 5508 5507 5506 5507 5507 5505 5505 5503 5499 5491 5493 5492 5492 5492 5494
5630 5632 5631 5629 5629 5628 5624 5621 5617 5611 5603 5594 5586 5578 5570 5562 5554 5547 5542 5536 5532 5528 5524 5520 5517 5514 5512 5511 5510 5508 5508 5508 5509 5508 5507 5506 5505 5504 5500 5492 5489 5489 5489 5490
5629 5628 5627 5627 5625 5625 5622 5618 5613 5606 5598 5590 5582 5575 5567 5560 5553 5547 5542 5537 5533 5529 5525 5521 5518 5516 5513 5512 5510 5509 5509 5506 5508 5508 5508 5508 5507 5507 5506 5505 5502 5498 5492 5490
5630 5631 5630 5628 5624 5621 5618 5613 5607 5600 5594 5586 5580 5573 5567 5560 5554 5548 5543 5538 5534 5530 5526 5523 5520 5517 5515 5514 5512 5511 5512 5511 5511 5510 5511 5510 5510 5510 5510 5508 5507 5506 5503 5498
5631 5631 5630 5627 5623 5620 5616 5611 5606 5599 5593 5586 5580 5573 5567 5562 5555 5549 5544 5540 5536 5532 5529 5525 5522 5520 5518 5516 5514 5513 5512 5507 5510 5513 5513 5512 5513 5513 5513 5513 5512 5511 5510 5509
5629 5628 5628 5626 5623 5620 5617 5613 5608 5601 5594 5587 5581 5575 5569 5563 5557 5551 5546 5542 5538 5535 5532 5528 5525 5523 5521 5519 5518 5519 5517 5513 5509 5516 5517 5517 5517 5517 5517 5518 5517 5516 5516 5512
5637 5635 5633 5630 5626 5622 5618 5613 5608 5601 5595 5590 5583 5577 5571 5565 5560 5555 5550 5545 5541 5537 5535 5532 5530 5527 5526 5523 5523 5524 5523 5522 5521 5523 5521 5521 5521 5522 5522 5522 5522 5521 5521 5518
5639 5637 5635 5631 5627 5623 5619 5614 5608 5603 5597 5591 5585 5579 5574 5569 5565 5559 5555 5550 5546 5542 5539 5537 5532 5532 5530 5528 5527 5527 5528 5528 5527 5527 5527 5522 5524 5527 5527 5527 5527 5528 5528 5527
5638 5637 5634 5631 5627 5624 5619 5615 5609 5603 5598 5593 5588 5583 5578 5574 5569 5564 5559 5556 5554 5552 5546 5542 5537 5537 5535 5533 5530 5535 5535 5534 5534 5533 5532 5532 5532 5532 5533 5533 5533 5533 5532 5532
5636 5635 5633 5631 5627 5624 5620 5616 5610 5604 5600 5596 5592 5587 5582 5578 5573 5569 5565 5563 5559 5556 5551 5544 5545 5544 5542 5540 5534 5542 5542 5540 5540 5539 5539 5539 5539 5539 5539 5539 5539 5538 5538 5538
5634 5633 5632 5630 5627 5623 5620 5616 5612 5608 5603 5599 5596 5592 5587 5582 5578 5575 5573 5572 5566 5559 5558 5555 5554 5552 5550 5545 5547 5549 5549 5548 5547 5546 5546 5546 5546 5546 5546 5545 5545 5545 5545 5544
5633 5632 5631 5629 5627 5624 5620 5618 5615 5611 5607 5603 5600 5596 5593 5590 5587 5583 5580 5577 5574 5564 5566 5566 5562 5555 5551 5550 5556 5557 5557 5555 5554 5554 5553 5553 5553 5552 5552 5552 5552 5551 5551 5550
5630 5630 5629 5628 5627 5624 5620 5619 5617 5614 5611 5608 5605 5601 5598 5595 5593 5592 5590 5582 5578 5570 5573 5571 5563 5558 5554 5560 5563 5564 5563 5562 5561 5562 5561 5561 5561 5561 5560 5559 5559 5558 5558 5556
5627 5628 5627 5626 5625 5625 5623 5621 5618 5615 5614 5612 5610 5606 5604 5603 5600 5599 5596 5590 5581 5575 5578 5573 5567 5563 5564 5569 5571 5571 5571 5571 5571 5570 5569 5568 5568 5568 5568 5566 5565 5565 5564 5563
5624 5625 5626 5625 5627 5627 5627 5625 5623 5621 5620 5618 5615 5612 5610 5608 5606 5604 5599 5595 5590 5583 5586 5584 5577 5571 5575 5578 5580 5579 5579 5577 5575 5573 5575 5575 5575 5575 5574 5573 5571 5571 5570 5569
5621 5623 5622 5624 5626 5628 5629 5628 5628 5626 5626 5624 5622 5619 5616 5613 5611 5609 5605 5603 5599 5594 5594 5594 5592 5587 5587 5588 5588 5587 5586 5585 5584 5583 5582 5582 5581 5581 5580 5579 5578 5577 5576 5576